Horseshoe Bay, TX

9:32 PM MDT on September 21, 2017 (GMT -0600)
Horseshoe Bay

Weather History for KDZB - December, 2012

Change the Weather History Date:

Tuesday, December 4, 2012

  Actual Average (KBMQ) Record (KBMQ)
Temperature  
Mean Temperature 56 °F -  
Max Temperature 71 °F 60 °F 78 °F (1998)
Min Temperature 42 °F 41 °F 25 °F (2006)
Degree Days  
Heating Degree Days 8    
Growing Degree Days 6 (Base 50)    
Moisture  
Dew Point 48 °F    
Average Humidity 68    
Maximum Humidity 100    
Minimum Humidity 33    
Precipitation  
Precipitation 0.00 in - - ()
Sea Level Pressure  
Sea Level Pressure 30.16 in    
Wind  
Wind Speed 3 mph (NNW)    
Max Wind Speed 13 mph    
Max Gust Speed 17 mph    
Visibility 10 miles    
Events      
Averages and records for this station are not official NWS values.
T = Trace of Precipitation, MM = Missing Value Source: NWS Daily Summary

Daily Weather History Graph

Daily Weather History Graph

Search for Another Location

Airport or City:

Trip Planner

Search our weather history database for the weather conditions in past years. The results will help you decide how hot, cold, wet, or windy it might be!

Date:

Astronomy

Dec. 04, 2012 Rise Set
Actual Time 6:15 AM MST 4:32 PM MST
Civil Twilight 5:49 AM MST 4:58 PM MST
Nautical Twilight 5:19 AM MST 5:28 PM MST
Astronomical Twilight 4:50 AM MST 5:57 PM MST
Moon 10:05 PM MST (12/4) 10:24 AM MST (12/4)
Length of Visible Light 11h 09m
Length of Day
10h 16m
Waning Gibbous, 69% of the Moon is Illuminated
Dec 4
Waning Gibbous
Dec 6
Last Quarter
Dec 13
New
Dec 19
First Quarter
Dec 28
Full

Hourly Weather History & Observations

Time (MST) Temp. Dew Point Humidity Pressure Visibility Wind Dir Wind Speed Gust Speed Precip Events Conditions
12:15 AM 62.6 °F 59.0 °F 88% 30.03 in 10.0 mi South 3.5 mph - N/A   Clear
12:35 AM 62.6 °F 59.0 °F 88% 30.03 in 10.0 mi Calm Calm - N/A   Scattered Clouds
12:55 AM 62.6 °F 60.8 °F 94% 30.04 in 10.0 mi Calm Calm - N/A   Scattered Clouds
1:15 AM 60.8 °F 60.8 °F 100% 30.04 in 10.0 mi Calm Calm - N/A   Scattered Clouds
1:55 AM 62.6 °F 60.8 °F 94% 30.04 in 10.0 mi Calm Calm - N/A   Clear
2:15 AM 62.6 °F 62.6 °F 100% 30.03 in 10.0 mi Calm Calm - N/A   Scattered Clouds
2:35 AM 60.8 °F 60.8 °F 100% 30.04 in 10.0 mi Calm Calm - N/A   Scattered Clouds
2:55 AM 60.8 °F 60.8 °F 100% 30.04 in 10.0 mi Calm Calm - N/A   Mostly Cloudy
3:15 AM 59.0 °F 59.0 °F 100% 30.04 in 10.0 mi Calm Calm - N/A   Scattered Clouds
3:35 AM 57.2 °F 57.2 °F 100% 30.04 in 7.0 mi Calm Calm - N/A   Scattered Clouds
3:55 AM 57.2 °F 57.2 °F 100% 30.05 in 10.0 mi Calm Calm - N/A   Scattered Clouds
4:15 AM 57.2 °F 57.2 °F 100% 30.07 in 10.0 mi Calm Calm - N/A   Overcast
4:35 AM 59.0 °F 59.0 °F 100% 30.07 in 10.0 mi Calm Calm - N/A   Overcast
4:55 AM 60.8 °F 60.8 °F 100% 30.08 in 10.0 mi Calm Calm - N/A   Overcast
5:15 AM 60.8 °F 60.8 °F 100% 30.09 in 10.0 mi Calm Calm - N/A   Overcast
5:35 AM 60.8 °F 60.8 °F 100% 30.09 in 10.0 mi Calm Calm - N/A   Overcast
5:55 AM 60.8 °F 60.8 °F 100% 30.10 in 10.0 mi Calm Calm - N/A   Overcast
6:15 AM 60.8 °F 60.8 °F 100% 30.11 in 10.0 mi Calm Calm - N/A   Overcast
6:55 AM 62.6 °F 62.6 °F 100% 30.12 in 10.0 mi Calm Calm - N/A   Mostly Cloudy
7:15 AM 62.6 °F 62.6 °F 100% 30.14 in 10.0 mi NNW 10.4 mph - N/A   Mostly Cloudy
7:35 AM 60.8 °F 60.8 °F 100% 30.16 in 7.0 mi NNW 5.8 mph - N/A   Mostly Cloudy
7:55 AM 60.8 °F 57.2 °F 88% 30.17 in 10.0 mi North 10.4 mph - N/A   Overcast
8:15 AM 59.0 °F 46.4 °F 63% 30.19 in 10.0 mi NNW 10.4 mph - N/A   Overcast
8:35 AM 59.0 °F 46.4 °F 63% 30.19 in 10.0 mi NNW 9.2 mph - N/A   Overcast
8:55 AM 59.0 °F 44.6 °F 59% 30.20 in 10.0 mi NNW 10.4 mph - N/A   Mostly Cloudy
9:15 AM 60.8 °F 44.6 °F 55% 30.21 in 10.0 mi NNW 9.2 mph - N/A   Scattered Clouds
9:35 AM 60.8 °F 42.8 °F 52% 30.21 in 10.0 mi NW 9.2 mph - N/A   Mostly Cloudy
9:55 AM 60.8 °F 42.8 °F 52% 30.21 in 10.0 mi NNW 6.9 mph - N/A   Overcast
10:15 AM 60.8 °F 44.6 °F 55% 30.21 in 10.0 mi NNW 9.2 mph - N/A   Overcast
10:35 AM 62.6 °F 44.6 °F 52% 30.20 in 10.0 mi NW 5.8 mph - N/A   Overcast
10:55 AM 62.6 °F 42.8 °F 48% 30.20 in 10.0 mi NW 5.8 mph - N/A   Overcast
11:15 AM 62.6 °F 42.8 °F 48% 30.18 in 10.0 mi NW 8.1 mph - N/A   Scattered Clouds
11:35 AM 64.4 °F 42.8 °F 45% 30.17 in 10.0 mi NW 6.9 mph - N/A   Clear
11:55 AM 66.2 °F 42.8 °F 43% 30.17 in 10.0 mi NW 9.2 mph - N/A   Clear
12:15 PM 68.0 °F 42.8 °F 40% 30.15 in 10.0 mi NW 6.9 mph - N/A   Clear
12:35 PM 69.8 °F 42.8 °F 38% 30.15 in 10.0 mi NW 8.1 mph - N/A   Clear
12:55 PM 69.8 °F 42.8 °F 38% 30.15 in 10.0 mi NW 10.4 mph - N/A   Clear
1:15 PM 71.6 °F 42.8 °F 35% 30.14 in 10.0 mi North 6.9 mph - N/A   Clear
1:35 PM 71.6 °F 42.8 °F 35% 30.14 in 10.0 mi North 10.4 mph - N/A   Clear
1:55 PM 71.6 °F 42.8 °F 35% 30.14 in 10.0 mi NNW 12.7 mph 17.3 mph N/A   Clear
2:15 PM 71.6 °F 42.8 °F 35% 30.14 in 10.0 mi NNW 12.7 mph - N/A   Clear
2:35 PM 71.6 °F 41.0 °F 33% 30.14 in 10.0 mi NNW 10.4 mph 17.3 mph N/A   Clear
2:55 PM 71.6 °F 41.0 °F 33% 30.15 in 10.0 mi NW 11.5 mph - N/A   Clear
3:15 PM 71.6 °F 42.8 °F 35% 30.14 in 10.0 mi North 6.9 mph - N/A   Clear
3:55 PM 69.8 °F 42.8 °F 38% 30.16 in 10.0 mi North 5.8 mph - N/A   Clear
4:15 PM 69.8 °F 42.8 °F 38% 30.16 in 10.0 mi North 3.5 mph - N/A   Clear
4:35 PM 68.0 °F 42.8 °F 40% 30.17 in 10.0 mi North 3.5 mph - N/A   Clear
4:55 PM 66.2 °F 44.6 °F 46% 30.17 in 10.0 mi North 4.6 mph - N/A   Clear
5:15 PM 64.4 °F 44.6 °F 49% 30.18 in 7.0 mi Calm Calm - N/A   Clear
5:35 PM 62.6 °F 44.6 °F 52% 30.19 in 7.0 mi Calm Calm - N/A   Clear
5:55 PM 60.8 °F 44.6 °F 55% 30.20 in 7.0 mi Calm Calm - N/A   Clear
6:15 PM 62.6 °F 44.6 °F 52% 30.21 in 7.0 mi Calm Calm - N/A   Clear
6:35 PM 62.6 °F 42.8 °F 48% 30.22 in 7.0 mi North 6.9 mph - N/A   Clear
6:55 PM 62.6 °F 42.8 °F 48% 30.23 in 10.0 mi North 4.6 mph - N/A   Clear
7:15 PM 60.8 °F 42.8 °F 52% 30.23 in 10.0 mi North 4.6 mph - N/A   Clear
7:35 PM 60.8 °F 42.8 °F 52% 30.23 in 10.0 mi NNW 3.5 mph - N/A   Clear
7:55 PM 59.0 °F 42.8 °F 55% 30.24 in 10.0 mi NNW 3.5 mph - N/A   Clear
8:15 PM 59.0 °F 44.6 °F 59% 30.24 in 10.0 mi NW 3.5 mph - N/A   Clear
8:35 PM 55.4 °F 42.8 °F 63% 30.24 in 10.0 mi Calm Calm - N/A   Clear
8:55 PM 50.0 °F 42.8 °F 76% 30.24 in 10.0 mi Calm Calm - N/A   Clear
9:15 PM 48.2 °F 41.0 °F 76% 30.24 in 10.0 mi Calm Calm - N/A   Clear
9:35 PM 46.4 °F 41.0 °F 81% 30.24 in 10.0 mi Calm Calm - N/A   Clear
9:55 PM 46.4 °F 41.0 °F 81% 30.25 in 10.0 mi Calm Calm - N/A   Clear
10:15 PM 46.4 °F 39.2 °F 76% 30.26 in 10.0 mi Calm Calm - N/A   Clear
10:35 PM 44.6 °F 37.4 °F 76% 30.26 in 10.0 mi Calm Calm - N/A   Clear
10:55 PM 44.6 °F 37.4 °F 76% 30.26 in 10.0 mi Calm Calm - N/A   Clear
11:15 PM 42.8 °F 37.4 °F 81% 30.25 in 10.0 mi Calm Calm - N/A   Clear
11:35 PM 42.8 °F 37.4 °F 81% 30.25 in 10.0 mi Calm Calm - N/A   Clear
11:55 PM 42.8 °F 35.6 °F 76% 30.25 in 10.0 mi Calm Calm - N/A   Clear